Weather History for Cordova, AK

Change the Weather History Date:

Wednesday, November 14, 2012

  Actual Average Record
Temperature  
Mean Temperature 34 °F -  
Max Temperature 39 °F 36 °F 53 °F (1976)
Min Temperature 30 °F 21 °F -7 °F (1973)
Degree Days  
Heating Degree Days 30    
Moisture  
Dew Point 33 °F    
Average Humidity 89    
Maximum Humidity 100    
Minimum Humidity 79    
Precipitation  
Precipitation 0.46 in - - ()
Snow  
Snow 0.00 in - - ()
Snow Depth 5.00 in    
Sea Level Pressure  
Sea Level Pressure 29.52 in    
Wind  
Wind Speed 3 mph (East)    
Max Wind Speed 13 mph    
Max Gust Speed 22 mph    
Visibility 8 miles    
Events Rain , Snow    
Averages and records for this station are not official NWS values.
T = Trace of Precipitation, MM = Missing Value Source: NWS Daily Summary

Daily Weather History Graph

Daily Weather History Graph

Search for Another Location

Airport:

Trip Planner

Search our weather history database for the weather conditions in past years. The results will help you decide how hot, cold, wet, or windy it might be!

Date:

Astronomy

Nov. 14, 2012 Rise Set
Actual Time 8:42 AM AKST 4:09 PM AKST
Civil Twilight 7:52 AM AKST 4:59 PM AKST
Nautical Twilight 6:59 AM AKST 5:52 PM AKST
Astronomical Twilight 6:09 AM AKST 6:42 PM AKST
Moon 10:02 AM AKST (11/14) 4:45 PM AKST (11/14)
Length of Visible Light 9h 07m
Length of Day
7h 27m
New Moon, 1% of the Moon is Illuminated
Nov 14
New Moon
Nov 20
First Quarter
Nov 28
Full
Dec 6
Last Quarter
Dec 12
New

Hourly Weather History & Observations

Time (AKST) Temp. Windchill Dew Point Humidity Pressure Visibility Wind Dir Wind Speed Gust Speed Precip Events Conditions
12:16 AM 30.2 °F - 30.2 °F 100% 29.80 in 1.5 mi Calm Calm - 0.01 in Snow Light Snow
12:45 AM 32.0 °F - 30.2 °F 93% 29.79 in 2.5 mi Calm Calm - 0.02 in Snow Light Snow
12:53 AM 32.0 °F - 30.9 °F 96% 29.79 in 2.0 mi Calm Calm - 0.03 in Snow Light Snow
1:13 AM 32.0 °F - 30.2 °F 93% 29.78 in 1.5 mi Calm Calm - 0.01 in Snow Light Snow
1:32 AM 33.8 °F - 32.0 °F 93% 29.77 in 2.0 mi Calm Calm - 0.03 in Snow Light Snow
1:53 AM 32.0 °F - 30.9 °F 96% 29.76 in 2.5 mi Calm Calm - 0.04 in Snow Light Snow
2:21 AM 32.0 °F - 32.0 °F 100% 29.75 in 1.8 mi Calm Calm - 0.02 in Snow Light Snow
2:36 AM 33.8 °F - 30.2 °F 87% 29.73 in 2.0 mi Calm Calm - 0.04 in Snow Light Snow
3:10 AM 33.8 °F 30.8 °F 30.2 °F 87% 29.71 in 4.0 mi East 3.5 mph - 0.01 in Snow Light Snow
3:53 AM 35.1 °F 30.1 °F 30.9 °F 85% 29.69 in 10.0 mi ENE 5.8 mph - 0.02 in Snow Light Snow
4:18 AM 35.6 °F - 32.0 °F 87% 29.66 in 10.0 mi Calm Calm - 0.01 in Rain Light Rain
4:30 AM 33.8 °F - 32.0 °F 93% 29.65 in 10.0 mi Calm Calm - 0.01 in Rain Light Rain
4:53 AM 33.1 °F - 32.0 °F 96% 29.63 in 10.0 mi Calm Calm - 0.02 in Rain Light Rain
5:53 AM 36.0 °F 32.1 °F 32.0 °F 86% 29.59 in 10.0 mi Variable 4.6 mph - 0.00 in Rain Light Rain
6:53 AM 37.0 °F 31.0 °F 32.0 °F 82% 29.56 in 8.0 mi ESE 8.1 mph 17.3 mph 0.00 in Rain , Snow Rain
7:53 AM 36.0 °F 32.1 °F 33.1 °F 89% 29.52 in 10.0 mi Variable 4.6 mph - 0.02 in Rain Light Rain
8:53 AM 37.9 °F 32.1 °F 33.1 °F 83% 29.48 in 10.0 mi ENE 8.1 mph 18.4 mph 0.00 in Rain Light Rain
9:20 AM 37.4 °F 29.8 °F 33.8 °F 87% 29.46 in 10.0 mi East 11.5 mph 18.4 mph 0.01 in Rain Light Rain
9:41 AM 37.4 °F 32.8 °F 33.8 °F 87% 29.45 in 10.0 mi ENE 5.8 mph - 0.01 in Rain Light Rain
9:53 AM 37.9 °F 32.1 °F 33.1 °F 83% 29.44 in 10.0 mi ENE 8.1 mph 16.1 mph 0.01 in Rain Light Rain
10:53 AM 39.0 °F 31.4 °F 33.1 °F 79% 29.42 in 10.0 mi ESE 12.7 mph 18.4 mph 0.01 in Rain Light Rain
11:53 AM 37.9 °F 30.9 °F 33.1 °F 83% 29.40 in 9.0 mi East 10.4 mph 19.6 mph 0.03 in Rain Light Rain
12:00 PM 37.4 °F 30.8 °F 33.8 °F 87% 29.40 in 8.0 mi East 9.2 mph - 0.00 in Rain Light Rain
12:53 PM 37.9 °F 30.9 °F 33.1 °F 83% 29.38 in 10.0 mi ESE 10.4 mph 19.6 mph 0.02 in Rain Light Rain
1:53 PM 37.0 °F 32.4 °F 34.0 °F 89% 29.36 in 10.0 mi East 5.8 mph - 0.02 in Rain Light Rain
2:53 PM 37.9 °F 32.1 °F 34.0 °F 86% 29.35 in 10.0 mi East 8.1 mph - 0.00 in   Mostly Cloudy
3:53 PM 37.0 °F 33.3 °F 33.1 °F 86% 29.33 in 10.0 mi ESE 4.6 mph - 0.00 in Rain Light Rain
4:53 PM 37.0 °F 32.4 °F 33.1 °F 86% 29.33 in 10.0 mi ENE 5.8 mph - N/A   Mostly Cloudy
5:53 PM 36.0 °F - 33.1 °F 89% 29.33 in 6.0 mi Calm Calm - 0.05 in Rain Rain
6:53 PM 36.0 °F - 34.0 °F 93% 29.34 in 10.0 mi Calm Calm - 0.01 in   Overcast
7:53 PM 37.0 °F 34.5 °F 34.0 °F 89% 29.34 in 10.0 mi ESE 3.5 mph - 0.01 in Rain Light Rain
8:06 PM 35.6 °F 31.7 °F 33.8 °F 93% 29.34 in 10.0 mi ESE 4.6 mph - 0.00 in Rain Light Rain
8:53 PM 36.0 °F 30.3 °F 33.1 °F 89% 29.35 in 7.0 mi NE 6.9 mph - 0.09 in Rain Rain
9:53 PM 36.0 °F 31.1 °F 34.0 °F 93% 29.36 in 10.0 mi ENE 5.8 mph - 0.01 in Rain Light Rain
10:53 PM 37.0 °F 33.3 °F 34.0 °F 89% 29.37 in 9.0 mi ENE 4.6 mph - 0.04 in Rain Light Rain
11:53 PM 37.0 °F 28.9 °F 33.1 °F 86% 29.37 in 9.0 mi ENE 12.7 mph 21.9 mph 0.03 in Rain Light Rain